QPF
0.00 0.00 0.00 0.00 0.00 0.00 0.00 0.00 0.00 0.00 0.00 0.00 0.00 0.01 0.01 0.01 0.01 0.01 0.01 0.01 0.01 0.01 0.01 0.01 0.02 0.02 0.05 0.08 0.08 0.09 0.09 0.11 0.18 0.20 0.20 0.20 0.25 0.27 0.28 0.32 0.33 0.27 0.25 0.28
0.00 0.00 0.00 0.00 0.00 0.00 0.00 0.00 0.00 0.00 0.01 0.00 0.00 0.01 0.01 0.01 0.01 0.01 0.02 0.02 0.02 0.02 0.01 0.01 0.01 0.03 0.05 0.08 0.07 0.07 0.09 0.09 0.11 0.14 0.17 0.21 0.26 0.27 0.25 0.27 0.29 0.26 0.24 0.27
0.00 0.00 0.00 0.00 0.00 0.00 0.00 0.00 0.00 0.00 0.00 0.00 0.00 0.01 0.01 0.01 0.01 0.02 0.02 0.02 0.02 0.02 0.02 0.02 0.03 0.04 0.04 0.03 0.04 0.05 0.08 0.08 0.09 0.10 0.11 0.14 0.20 0.19 0.19 0.21 0.25 0.24 0.20 0.22
0.00 0.00 0.00 0.00 0.00 0.00 0.00 0.00 0.00 0.00 0.00 0.00 0.00 0.00 0.01 0.02 0.02 0.02 0.02 0.02 0.02 0.02 0.02 0.03 0.03 0.05 0.06 0.04 0.05 0.06 0.07 0.07 0.08 0.09 0.10 0.11 0.11 0.10 0.11 0.12 0.16 0.18 0.16 0.13
0.00 0.00 0.00 0.00 0.00 0.00 0.00 0.00 0.00 0.00 0.00 0.00 0.00 0.00 0.01 0.01 0.01 0.02 0.02 0.02 0.03 0.02 0.02 0.02 0.03 0.04 0.06 0.06 0.06 0.08 0.08 0.07 0.09 0.13 0.12 0.11 0.11 0.11 0.10 0.10 0.11 0.13 0.11 0.10
0.00 0.00 0.00 0.00 0.00 0.00 0.00 0.00 0.00 0.00 0.00 0.00 0.00 0.00 0.00 0.01 0.01 0.01 0.02 0.02 0.03 0.03 0.03 0.02 0.02 0.03 0.05 0.06 0.07 0.07 0.09 0.08 0.09 0.13 0.14 0.13 0.13 0.11 0.10 0.09 0.09 0.09 0.08 0.07
0.00 0.00 0.00 0.00 0.00 0.00 0.00 0.00 0.00 0.00 0.00 0.00 0.00 0.00 0.00 0.01 0.01 0.02 0.02 0.03 0.05 0.03 0.02 0.02 0.02 0.01 0.02 0.03 0.04 0.04 0.06 0.08 0.07 0.10 0.16 0.16 0.11 0.08 0.06 0.06 0.06 0.07 0.09 0.08
0.00 0.00 0.00 0.00 0.00 0.00 0.00 0.00 0.00 0.00 0.00 0.00 0.00 0.00 0.00 0.01 0.01 0.01 0.02 0.05 0.06 0.05 0.04 0.03 0.02 0.01 0.01 0.01 0.01 0.01 0.02 0.04 0.05 0.06 0.09 0.12 0.12 0.12 0.09 0.07 0.07 0.06 0.07 0.09
0.00 0.00 0.00 0.00 0.00 0.00 0.00 0.00 0.00 0.00 0.00 0.00 0.00 0.00 0.00 0.01 0.02 0.02 0.03 0.06 0.08 0.07 0.05 0.03 0.02 0.01 0.02 0.02 0.01 0.01 0.01 0.02 0.03 0.04 0.06 0.06 0.08 0.11 0.09 0.09 0.09 0.06 0.06 0.07
0.00 0.00 0.00 0.00 0.00 0.00 0.00 0.00 0.00 0.00 0.00 0.00 0.00 0.00 0.00 0.01 0.02 0.02 0.02 0.02 0.03 0.03 0.02 0.02 0.01 0.02 0.03 0.02 0.03 0.03 0.02 0.02 0.03 0.03 0.04 0.04 0.06 0.08 0.08 0.08 0.07 0.06 0.06 0.06
0.00 0.00 0.00 0.00 0.00 0.00 0.00 0.00 0.01 0.01 0.00 0.00 0.00 0.00 0.00 0.01 0.01 0.01 0.02 0.01 0.01 0.02 0.02 0.02 0.02 0.02 0.01 0.02 0.03 0.03 0.03 0.03 0.03 0.02 0.02 0.03 0.04 0.05 0.06 0.07 0.07 0.06 0.05 0.06
0.01 0.00 0.00 0.00 0.00 0.00 0.00 0.00 0.01 0.01 0.00 0.00 0.00 0.00 0.01 0.01 0.01 0.01 0.02 0.02 0.02 0.03 0.02 0.01 0.02 0.02 0.02 0.02 0.03 0.04 0.04 0.02 0.02 0.02 0.02 0.03 0.04 0.04 0.05 0.05 0.05 0.04 0.03 0.04
0.00 0.00 0.00 0.00 0.00 0.00 0.00 0.00 0.00 0.00 0.00 0.00 0.00 0.00 0.00 0.00 0.01 0.01 0.02 0.02 0.01 0.01 0.01 0.01 0.01 0.01 0.01 0.03 0.03 0.03 0.02 0.01 0.01 0.02 0.03 0.03 0.04 0.04 0.04 0.04 0.04 0.04 0.03 0.03
0.00 0.00 0.01 0.00 0.00 0.00 0.00 0.01 0.00 0.00 0.00 0.00 0.00 0.00 0.00 0.00 0.01 0.01 0.01 0.01 0.01 0.01 0.01 0.01 0.01 0.01 0.01 0.02 0.03 0.02 0.01 0.01 0.02 0.02 0.03 0.04 0.05 0.04 0.04 0.04 0.03 0.03 0.02 0.02
0.01 0.01 0.01 0.01 0.01 0.00 0.00 0.00 0.00 0.00 0.00 0.00 0.00 0.00 0.00 0.00 0.01 0.01 0.01 0.01 0.01 0.01 0.00 0.00 0.00 0.00 0.02 0.02 0.02 0.02 0.02 0.01 0.02 0.03 0.03 0.03 0.04 0.04 0.04 0.04 0.03 0.02 0.02 0.02
0.01 0.01 0.01 0.00 0.01 0.01 0.01 0.01 0.01 0.00 0.00 0.00 0.00 0.00 0.00 0.01 0.01 0.01 0.01 0.01 0.01 0.01 0.01 0.01 0.01 0.01 0.01 0.02 0.01 0.01 0.01 0.01 0.02 0.03 0.04 0.03 0.03 0.04 0.05 0.05 0.03 0.02 0.02 0.02
0.01 0.01 0.01 0.01 0.01 0.01 0.01 0.00 0.00 0.00 0.00 0.00 0.00 0.00 0.00 0.01 0.01 0.00 0.00 0.01 0.01 0.01 0.01 0.01 0.01 0.02 0.01 0.01 0.01 0.02 0.02 0.01 0.02 0.02 0.03 0.03 0.03 0.03 0.04 0.04 0.04 0.02 0.02 0.02
0.01 0.02 0.01 0.01 0.01 0.01 0.00 0.00 0.00 0.00 0.00 0.00 0.00 0.00 0.01 0.01 0.01 0.01 0.02 0.02 0.02 0.01 0.01 0.01 0.01 0.02 0.02 0.02 0.02 0.03 0.03 0.02 0.02 0.02 0.02 0.03 0.03 0.03 0.03 0.04 0.04 0.03 0.03 0.03
0.01 0.02 0.03 0.02 0.01 0.00 0.00 0.01 0.00 0.00 0.00 0.00 0.00 0.00 0.01 0.02 0.02 0.03 0.03 0.02 0.02 0.02 0.02 0.02 0.02 0.02 0.02 0.03 0.03 0.03 0.03 0.03 0.02 0.02 0.02 0.02 0.02 0.03 0.03 0.03 0.03 0.03 0.03 0.04
0.01 0.02 0.02 0.02 0.01 0.01 0.00 0.01 0.01 0.00 0.00 0.01 0.01 0.01 0.00 0.00 0.00 0.01 0.01 0.01 0.01 0.01 0.02 0.02 0.02 0.02 0.02 0.02 0.02 0.03 0.03 0.03 0.02 0.02 0.02 0.03 0.02 0.03 0.03 0.03 0.03 0.02 0.03 0.03
0.02 0.02 0.02 0.02 0.02 0.01 0.01 0.01 0.01 0.01 0.01 0.01 0.01 0.01 0.00 0.00 0.00 0.00 0.00 0.00 0.01 0.01 0.01 0.02 0.02 0.02 0.02 0.02 0.03 0.02 0.03 0.02 0.02 0.02 0.03 0.03 0.02 0.02 0.02 0.03 0.03 0.03 0.03 0.03
0.02 0.02 0.02 0.02 0.02 0.01 0.01 0.01 0.01 0.01 0.01 0.01 0.01 0.00 0.00 0.00 0.00 0.01 0.00 0.00 0.01 0.01 0.02 0.01 0.02 0.02 0.02 0.02 0.02 0.03 0.03 0.02 0.02 0.02 0.02 0.02 0.02 0.03 0.03 0.03 0.04 0.03 0.03 0.03
0.02 0.02 0.02 0.02 0.02 0.01 0.01 0.01 0.01 0.01 0.00 0.00 0.00 0.00 0.00 0.00 0.00 0.00 0.00 0.00 0.01 0.01 0.01 0.01 0.01 0.02 0.02 0.01 0.01 0.02 0.01 0.01 0.01 0.01 0.01 0.01 0.02 0.02 0.02 0.02 0.02 0.03 0.03 0.02
0.02 0.03 0.03 0.02 0.02 0.02 0.01 0.01 0.01 0.00 0.00 0.00 0.00 0.00 0.00 0.00 0.00 0.00 0.00 0.00 0.00 0.01 0.01 0.01 0.02 0.02 0.02 0.02 0.01 0.01 0.01 0.01 0.01 0.01 0.01 0.01 0.01 0.01 0.01 0.01 0.02 0.02 0.01 0.01
0.03 0.03 0.03 0.04 0.03 0.02 0.01 0.01 0.00 0.00 0.00 0.00 0.00 0.00 0.00 0.00 0.00 0.00 0.00 0.00 0.00 0.01 0.01 0.01 0.01 0.02 0.02 0.01 0.01 0.00 0.00 0.00 0.00 0.01 0.01 0.01 0.01 0.01 0.01 0.01 0.02 0.01 0.01 0.01
0.02 0.03 0.02 0.02 0.01 0.01 0.01 0.00 0.00 0.00 0.00 0.00 0.00 0.00 0.00 0.00 0.00 0.00 0.00 0.00 0.01 0.01 0.01 0.01 0.01 0.01 0.01 0.01 0.00 0.00 0.00 0.00 0.00 0.00 0.00 0.00 0.01 0.01 0.01 0.01 0.01 0.01 0.00 0.00
MSLP
1012.78 1013.45 1013.92 1014.17 1014.23 1014.16 1014.03 1013.93 1013.91 1014.02 1014.25 1014.58 1014.98 1015.38 1015.74 1016.02 1016.20 1016.28 1016.27 1016.20 1016.09 1015.94 1015.77 1015.57 1015.33 1015.07 1014.77 1014.45 1014.12 1013.82 1013.56 1013.36 1013.23 1013.17 1013.15 1013.17 1013.21 1013.26 1013.31 1013.37 1013.47 1013.63 1013.85 1014.16
1013.01 1013.54 1013.88 1014.04 1014.07 1014.02 1013.96 1013.98 1014.10 1014.34 1014.67 1015.07 1015.49 1015.87 1016.19 1016.42 1016.58 1016.67 1016.72 1016.74 1016.75 1016.74 1016.68 1016.57 1016.37 1016.08 1015.71 1015.26 1014.79 1014.33 1013.93 1013.62 1013.40 1013.29 1013.27 1013.30 1013.36 1013.43 1013.50 1013.57 1013.65 1013.77 1013.95 1014.20
1013.07 1013.45 1013.66 1013.75 1013.75 1013.75 1013.81 1013.96 1014.24 1014.62 1015.06 1015.51 1015.92 1016.26 1016.51 1016.67 1016.78 1016.87 1016.96 1017.07 1017.21 1017.34 1017.42 1017.41 1017.27 1016.98 1016.55 1016.01 1015.41 1014.81 1014.27 1013.85 1013.56 1013.42 1013.39 1013.45 1013.55 1013.67 1013.79 1013.88 1013.97 1014.08 1014.22 1014.41
1013.01 1013.23 1013.33 1013.35 1013.37 1013.45 1013.64 1013.97 1014.41 1014.93 1015.46 1015.95 1016.34 1016.61 1016.76 1016.83 1016.87 1016.92 1017.03 1017.22 1017.46 1017.73 1017.95 1018.05 1017.99 1017.73 1017.28 1016.67 1015.97 1015.26 1014.61 1014.09 1013.74 1013.56 1013.53 1013.62 1013.78 1013.97 1014.14 1014.28 1014.40 1014.51 1014.63 1014.77
1012.88 1012.96 1012.97 1012.96 1013.03 1013.22 1013.56 1014.07 1014.68 1015.34 1015.95 1016.46 1016.81 1016.99 1017.02 1016.97 1016.91 1016.91 1017.01 1017.24 1017.58 1017.96 1018.31 1018.53 1018.56 1018.35 1017.91 1017.28 1016.52 1015.72 1014.98 1014.39 1013.97 1013.76 1013.74 1013.85 1014.06 1014.30 1014.53 1014.73 1014.89 1015.01 1015.12 1015.23
1012.75 1012.71 1012.65 1012.65 1012.79 1013.11 1013.62 1014.30 1015.08 1015.85 1016.53 1017.04 1017.34 1017.42 1017.32 1017.14 1016.97 1016.90 1016.97 1017.23 1017.63 1018.10 1018.56 1018.90 1019.03 1018.90 1018.50 1017.87 1017.09 1016.25 1015.45 1014.80 1014.33 1014.08 1014.04 1014.16 1014.40 1014.68 1014.96 1015.21 1015.40 1015.55 1015.66 1015.75
1012.65 1012.53 1012.45 1012.48 1012.71 1013.16 1013.83 1014.66 1015.57 1016.44 1017.16 1017.66 1017.89 1017.87 1017.66 1017.36 1017.08 1016.93 1016.98 1017.23 1017.67 1018.23 1018.78 1019.23 1019.46 1019.41 1019.08 1018.50 1017.73 1016.88 1016.06 1015.36 1014.85 1014.56 1014.49 1014.59 1014.82 1015.12 1015.42 1015.69 1015.91 1016.08 1016.20 1016.29
1012.63 1012.47 1012.39 1012.47 1012.79 1013.35 1014.14 1015.09 1016.09 1017.01 1017.74 1018.21 1018.38 1018.27 1017.97 1017.58 1017.23 1017.03 1017.04 1017.31 1017.78 1018.39 1019.02 1019.56 1019.88 1019.94 1019.69 1019.17 1018.45 1017.63 1016.81 1016.09 1015.54 1015.21 1015.09 1015.15 1015.35 1015.62 1015.92 1016.20 1016.42 1016.59 1016.72 1016.81
1012.70 1012.53 1012.47 1012.62 1013.00 1013.64 1014.50 1015.50 1016.52 1017.44 1018.15 1018.57 1018.69 1018.53 1018.18 1017.75 1017.37 1017.16 1017.17 1017.45 1017.96 1018.61 1019.31 1019.91 1020.32 1020.47 1020.31 1019.88 1019.23 1018.46 1017.66 1016.94 1016.37 1016.00 1015.82 1015.83 1015.97 1016.20 1016.47 1016.72 1016.94 1017.11 1017.23 1017.32
1012.87 1012.72 1012.69 1012.87 1013.30 1013.96 1014.82 1015.79 1016.77 1017.63 1018.28 1018.65 1018.73 1018.55 1018.20 1017.80 1017.45 1017.28 1017.34 1017.66 1018.20 1018.89 1019.62 1020.28 1020.75 1020.97 1020.91 1020.56 1020.00 1019.30 1018.55 1017.86 1017.28 1016.88 1016.65 1016.59 1016.68 1016.85 1017.07 1017.29 1017.48 1017.64 1017.76 1017.86
1013.12 1013.00 1013.01 1013.21 1013.63 1014.25 1015.03 1015.91 1016.77 1017.51 1018.07 1018.37 1018.43 1018.28 1017.99 1017.68 1017.43 1017.36 1017.51 1017.89 1018.48 1019.20 1019.95 1020.63 1021.14 1021.42 1021.42 1021.16 1020.69 1020.08 1019.40 1018.75 1018.19 1017.78 1017.52 1017.41 1017.44 1017.56 1017.73 1017.92 1018.09 1018.23 1018.35 1018.44
1013.43 1013.36 1013.40 1013.59 1013.95 1014.47 1015.12 1015.82 1016.50 1017.09 1017.52 1017.77 1017.83 1017.74 1017.57 1017.40 1017.32 1017.39 1017.66 1018.13 1018.77 1019.51 1020.27 1020.94 1021.46 1021.75 1021.80 1021.62 1021.23 1020.71 1020.12 1019.54 1019.03 1018.63 1018.37 1018.24 1018.23 1018.32 1018.46 1018.62 1018.78 1018.91 1019.03 1019.12
1013.77 1013.75 1013.81 1013.97 1014.24 1014.62 1015.07 1015.56 1016.02 1016.42 1016.73 1016.91 1016.99 1017.00 1016.98 1017.01 1017.13 1017.39 1017.81 1018.38 1019.07 1019.81 1020.54 1021.18 1021.67 1021.96 1022.04 1021.91 1021.60 1021.17 1020.68 1020.19 1019.74 1019.39 1019.16 1019.04 1019.03 1019.10 1019.23 1019.39 1019.56 1019.70 1019.83 1019.92
1014.11 1014.14 1014.21 1014.32 1014.49 1014.69 1014.92 1015.17 1015.41 1015.62 1015.79 1015.93 1016.05 1016.18 1016.35 1016.59 1016.93 1017.40 1017.97 1018.64 1019.37 1020.10 1020.79 1021.36 1021.80 1022.06 1022.13 1022.04 1021.80 1021.47 1021.07 1020.68 1020.33 1020.05 1019.86 1019.78 1019.80 1019.89 1020.04 1020.23 1020.41 1020.58 1020.72 1020.84
1014.43 1014.50 1014.57 1014.62 1014.66 1014.69 1014.71 1014.72 1014.74 1014.78 1014.85 1014.96 1015.14 1015.41 1015.76 1016.23 1016.79 1017.45 1018.17 1018.92 1019.67 1020.38 1020.99 1021.49 1021.85 1022.06 1022.12 1022.05 1021.88 1021.62 1021.33 1021.05 1020.79 1020.60 1020.49 1020.47 1020.53 1020.66 1020.86 1021.08 1021.30 1021.52 1021.69 1021.82
1014.71 1014.81 1014.86 1014.84 1014.76 1014.63 1014.45 1014.27 1014.11 1014.01 1014.00 1014.12 1014.38 1014.78 1015.33 1016.00 1016.76 1017.59 1018.42 1019.24 1019.99 1020.65 1021.19 1021.59 1021.87 1022.02 1022.06 1022.00 1021.88 1021.71 1021.52 1021.33 1021.18 1021.08 1021.04 1021.09 1021.20 1021.39 1021.63 1021.91 1022.18 1022.44 1022.66 1022.82
1014.95 1015.04 1015.05 1014.96 1014.78 1014.50 1014.18 1013.84 1013.56 1013.37 1013.33 1013.48 1013.82 1014.36 1015.07 1015.92 1016.85 1017.80 1018.73 1019.57 1020.31 1020.91 1021.36 1021.68 1021.88 1021.98 1021.99 1021.95 1021.87 1021.78 1021.67 1021.58 1021.52 1021.51 1021.55 1021.65 1021.82 1022.05 1022.34 1022.66 1022.99 1023.30 1023.56 1023.76
1015.14 1015.18 1015.14 1014.97 1014.69 1014.32 1013.89 1013.47 1013.11 1012.90 1012.87 1013.07 1013.51 1014.17 1015.02 1016.00 1017.04 1018.08 1019.05 1019.90 1020.60 1021.14 1021.53 1021.77 1021.90 1021.96 1021.97 1021.94 1021.91 1021.88 1021.86 1021.85 1021.87 1021.92 1022.01 1022.16 1022.36 1022.63 1022.95 1023.31 1023.67 1024.03 1024.33 1024.57
1015.28 1015.25 1015.12 1014.87 1014.52 1014.08 1013.59 1013.14 1012.78 1012.58 1012.60 1012.87 1013.40 1014.16 1015.11 1016.18 1017.30 1018.38 1019.35 1020.19 1020.85 1021.33 1021.66 1021.85 1021.94 1021.98 1022.00 1022.00 1022.02 1022.05 1022.09 1022.15 1022.23 1022.32 1022.45 1022.62 1022.84 1023.12 1023.45 1023.82 1024.22 1024.60 1024.94 1025.21
1015.39 1015.24 1015.00 1014.68 1014.26 1013.78 1013.29 1012.85 1012.53 1012.39 1012.49 1012.84 1013.45 1014.29 1015.30 1016.42 1017.56 1018.64 1019.60 1020.40 1021.02 1021.47 1021.75 1021.91 1022.00 1022.05 1022.09 1022.13 1022.20 1022.29 1022.39 1022.49 1022.60 1022.73 1022.87 1023.04 1023.25 1023.53 1023.85 1024.22 1024.62 1025.02 1025.38 1025.68
1015.45 1015.17 1014.82 1014.41 1013.95 1013.47 1013.00 1012.61 1012.37 1012.32 1012.50 1012.94 1013.62 1014.50 1015.54 1016.67 1017.79 1018.84 1019.77 1020.53 1021.12 1021.53 1021.81 1021.97 1022.07 1022.15 1022.23 1022.33 1022.45 1022.58 1022.72 1022.87 1023.00 1023.13 1023.27 1023.43 1023.63 1023.88 1024.19 1024.54 1024.92 1025.32 1025.69 1026.02
1015.47 1015.04 1014.59 1014.11 1013.62 1013.15 1012.74 1012.44 1012.29 1012.34 1012.62 1013.13 1013.85 1014.76 1015.80 1016.90 1017.98 1018.99 1019.87 1020.59 1021.15 1021.55 1021.83 1022.02 1022.16 1022.29 1022.42 1022.57 1022.73 1022.91 1023.09 1023.25 1023.40 1023.53 1023.67 1023.81 1023.99 1024.21 1024.48 1024.81 1025.17 1025.55 1025.92 1026.26
1015.43 1014.86 1014.31 1013.78 1013.29 1012.87 1012.53 1012.33 1012.29 1012.45 1012.82 1013.39 1014.15 1015.05 1016.06 1017.11 1018.13 1019.08 1019.91 1020.60 1021.14 1021.55 1021.86 1022.09 1022.28 1022.46 1022.64 1022.84 1023.05 1023.26 1023.45 1023.63 1023.79 1023.92 1024.05 1024.18 1024.33 1024.53 1024.78 1025.07 1025.41 1025.77 1026.12 1026.45
1015.28 1014.62 1014.00 1013.45 1012.99 1012.63 1012.39 1012.30 1012.38 1012.64 1013.09 1013.71 1014.48 1015.37 1016.34 1017.32 1018.28 1019.16 1019.94 1020.60 1021.14 1021.56 1021.90 1022.18 1022.43 1022.66 1022.89 1023.12 1023.36 1023.59 1023.81 1023.99 1024.15 1024.28 1024.41 1024.53 1024.68 1024.86 1025.08 1025.35 1025.66 1025.99 1026.32 1026.63
1015.02 1014.29 1013.65 1013.11 1012.70 1012.43 1012.31 1012.34 1012.54 1012.90 1013.42 1014.08 1014.85 1015.71 1016.62 1017.54 1018.43 1019.25 1019.98 1020.62 1021.16 1021.61 1021.99 1022.31 1022.60 1022.88 1023.14 1023.40 1023.66 1023.90 1024.12 1024.31 1024.47 1024.61 1024.74 1024.86 1025.01 1025.18 1025.40 1025.65 1025.93 1026.23 1026.53 1026.81
1014.60 1013.86 1013.23 1012.75 1012.42 1012.26 1012.26 1012.43 1012.74 1013.20 1013.78 1014.47 1015.24 1016.07 1016.92 1017.77 1018.59 1019.36 1020.06 1020.68 1021.22 1021.69 1022.10 1022.47 1022.79 1023.10 1023.39 1023.66 1023.92 1024.16 1024.37 1024.56 1024.72 1024.87 1025.00 1025.14 1025.30 1025.48 1025.68 1025.92 1026.18 1026.45 1026.71 1026.95
Thickness
5694 5683 5677 5683 5687 5690 5689 5685 5680 5687 5699 5692 5685 5682 5683 5685 5684 5681 5681 5680 5679 5679 5680 5681 5682 5683 5684 5683 5682 5682 5681 5680 5681 5680 5680 5680 5679 5679 5680 5680 5680 5681 5681 5682
5679 5678 5689 5694 5692 5690 5686 5682 5680 5686 5695 5687 5677 5674 5677 5678 5677 5676 5674 5673 5672 5671 5671 5671 5672 5673 5673 5673 5673 5673 5672 5672 5672 5672 5672 5672 5671 5670 5671 5672 5672 5673 5673 5675
5679 5686 5697 5695 5691 5687 5685 5682 5684 5683 5683 5681 5673 5665 5667 5670 5671 5670 5668 5666 5664 5663 5661 5661 5661 5661 5662 5662 5662 5663 5663 5664 5663 5664 5663 5663 5663 5663 5663 5663 5663 5664 5665 5667
5682 5691 5695 5693 5691 5690 5682 5693 5691 5686 5673 5662 5668 5651 5660 5663 5662 5662 5660 5658 5656 5655 5653 5651 5650 5650 5651 5651 5652 5653 5655 5656 5656 5656 5655 5654 5653 5652 5652 5652 5653 5655 5656 5657
5682 5692 5693 5690 5695 5696 5691 5696 5689 5682 5670 5657 5657 5647 5650 5658 5656 5657 5654 5651 5649 5646 5644 5641 5639 5638 5639 5640 5642 5643 5645 5646 5647 5648 5647 5645 5644 5643 5643 5643 5644 5645 5646 5648
5687 5698 5700 5699 5704 5702 5696 5685 5674 5662 5654 5646 5653 5644 5645 5651 5656 5655 5651 5647 5643 5639 5635 5632 5630 5629 5629 5630 5631 5633 5634 5634 5635 5636 5637 5636 5635 5635 5635 5634 5634 5635 5636 5638
5679 5690 5701 5705 5696 5694 5687 5666 5645 5643 5633 5637 5649 5644 5644 5656 5659 5655 5649 5643 5637 5632 5627 5623 5621 5620 5619 5619 5620 5622 5623 5623 5624 5624 5625 5625 5625 5625 5625 5624 5624 5625 5626 5627
5665 5667 5691 5699 5695 5685 5679 5668 5643 5634 5629 5632 5642 5639 5648 5655 5654 5652 5645 5638 5632 5625 5620 5616 5613 5611 5610 5609 5610 5611 5611 5612 5612 5613 5613 5614 5614 5613 5613 5613 5614 5615 5616 5617
5663 5667 5692 5698 5699 5690 5674 5663 5661 5640 5634 5627 5632 5641 5649 5649 5646 5643 5638 5632 5625 5619 5613 5609 5605 5603 5601 5600 5600 5600 5601 5601 5601 5602 5603 5603 5603 5603 5602 5603 5604 5604 5605 5607
5676 5669 5683 5692 5695 5687 5680 5662 5647 5637 5626 5622 5630 5635 5637 5644 5642 5638 5633 5627 5619 5612 5606 5601 5598 5595 5593 5592 5591 5591 5592 5591 5591 5591 5592 5592 5592 5592 5592 5593 5594 5594 5595 5596
5678 5665 5672 5679 5677 5675 5671 5660 5646 5633 5631 5621 5618 5630 5651 5650 5646 5639 5632 5624 5615 5607 5601 5595 5590 5587 5585 5583 5582 5582 5581 5581 5581 5581 5581 5581 5581 5581 5582 5582 5582 5583 5584 5585
5671 5658 5654 5666 5679 5683 5676 5665 5648 5639 5633 5624 5618 5629 5653 5650 5646 5638 5629 5619 5609 5602 5594 5588 5583 5580 5577 5575 5573 5572 5571 5570 5570 5570 5570 5570 5570 5570 5570 5570 5571 5571 5572 5573
5669 5654 5644 5649 5658 5669 5668 5663 5653 5641 5629 5619 5618 5633 5647 5644 5639 5632 5623 5613 5604 5595 5587 5581 5576 5572 5569 5566 5564 5563 5561 5560 5560 5559 5559 5558 5558 5559 5559 5559 5559 5560 5560 5561
5669 5652 5645 5642 5648 5659 5661 5661 5653 5644 5630 5625 5630 5639 5642 5638 5632 5624 5615 5607 5598 5589 5581 5574 5568 5564 5560 5557 5555 5553 5551 5550 5550 5550 5549 5548 5548 5547 5547 5547 5547 5548 5549 5549
5661 5650 5653 5655 5662 5662 5661 5661 5658 5649 5645 5637 5642 5641 5642 5638 5631 5621 5610 5601 5592 5583 5576 5569 5561 5556 5552 5548 5546 5544 5542 5541 5540 5540 5539 5538 5537 5537 5537 5537 5536 5537 5537 5538
5649 5647 5650 5652 5660 5660 5657 5661 5659 5656 5652 5646 5644 5641 5641 5634 5625 5614 5605 5597 5588 5579 5571 5563 5556 5550 5544 5541 5538 5536 5534 5532 5531 5530 5529 5528 5528 5527 5527 5527 5526 5526 5526 5526
5638 5640 5637 5636 5647 5653 5647 5658 5658 5656 5654 5648 5641 5641 5633 5625 5619 5611 5601 5592 5584 5575 5566 5557 5549 5543 5538 5533 5530 5528 5526 5524 5523 5522 5521 5520 5519 5518 5518 5518 5518 5517 5516 5516
5635 5631 5626 5627 5636 5632 5648 5662 5662 5655 5651 5649 5644 5636 5629 5622 5612 5603 5595 5586 5577 5569 5560 5551 5543 5536 5531 5527 5523 5521 5519 5517 5515 5513 5513 5512 5511 5511 5510 5510 5509 5508 5507 5507
5635 5630 5623 5619 5623 5631 5649 5657 5656 5650 5646 5645 5636 5627 5618 5610 5602 5592 5586 5579 5571 5562 5552 5543 5536 5530 5524 5520 5517 5514 5512 5510 5508 5507 5506 5505 5505 5504 5503 5502 5501 5500 5499 5498
5630 5629 5622 5618 5622 5623 5642 5656 5659 5651 5639 5639 5633 5623 5613 5608 5598 5588 5579 5571 5562 5553 5545 5537 5530 5524 5518 5514 5511 5509 5506 5504 5502 5501 5500 5499 5498 5497 5496 5495 5494 5494 5493 5492
5623 5621 5619 5617 5618 5628 5646 5654 5655 5635 5634 5638 5630 5621 5612 5605 5597 5586 5574 5563 5555 5547 5539 5531 5524 5518 5513 5509 5507 5504 5501 5499 5498 5497 5495 5494 5493 5492 5491 5490 5489 5488 5488 5486
5620 5618 5617 5615 5616 5626 5646 5648 5642 5637 5637 5632 5625 5616 5605 5594 5586 5577 5567 5557 5549 5540 5533 5526 5519 5513 5509 5506 5503 5499 5497 5495 5494 5492 5490 5489 5488 5488 5487 5486 5484 5483 5482 5481
5619 5622 5621 5622 5626 5635 5638 5640 5639 5636 5631 5626 5619 5609 5599 5589 5580 5570 5560 5551 5543 5536 5528 5522 5516 5510 5506 5503 5500 5497 5494 5492 5490 5488 5486 5484 5483 5482 5482 5481 5480 5478 5477 5477
5621 5624 5622 5624 5631 5634 5635 5635 5634 5632 5627 5622 5615 5605 5596 5585 5575 5565 5555 5546 5539 5531 5524 5518 5513 5508 5504 5501 5498 5496 5493 5490 5488 5485 5483 5481 5480 5479 5478 5477 5477 5476 5475 5474
5618 5621 5620 5623 5629 5632 5634 5630 5627 5624 5621 5615 5607 5599 5591 5581 5570 5561 5551 5542 5535 5528 5522 5516 5511 5507 5503 5500 5497 5495 5492 5489 5486 5483 5481 5478 5477 5476 5474 5473 5472 5473 5472 5472
5618 5621 5621 5625 5631 5628 5628 5626 5623 5619 5614 5609 5601 5591 5583 5577 5567 5557 5548 5540 5532 5526 5520 5514 5510 5506 5502 5499 5496 5494 5491 5488 5485 5482 5479 5477 5475 5474 5472 5472 5471 5470 5471 5471